RH
88 91 92 90 93 93 93 91 87 89 91 91 90 90 91 94 92 87 90 84 81 84
87 88 88 89 90 92 90 76 89 90 91 91 90 90 90 94 93 94 85 87 86 88
84 82 87 88 89 86 88 86 90 90 90 89 88 89 91 94 94 89 87 85 89 91
82 82 86 87 90 89 83 80 74 85 86 84 89 92 94 94 92 87 89 86 87 87
82 82 87 87 90 87 86 80 71 69 71 81 93 94 95 96 94 89 88 87 90 91
84 84 87 87 90 87 85 80 76 85 92 94 94 94 93 85 89 88 89 90 92 94
84 84 89 89 91 88 87 87 90 91 92 91 89 88 85 88 90 91 91 92 93 93
87 89 87 90 90 90 87 83 88 90 82 82 83 80 91 90 93 94 93 93 92 93
87 88 90 90 91 91 91 85 82 82 82 85 81 87 86 90 94 94 94 96 94 91
85 86 92 85 86 92 94 88 86 83 85 86 86 86 86 88 89 93 96 95 93 87
87 83 85 88 88 87 87 89 87 85 89 92 83 86 83 81 89 89 87 88 93 94
90 90 84 91 90 89 90 88 88 85 89 93 88 86 83 85 89 90 88 81 88 83
93 94 95 91 92 92 91 90 84 81 88 84 89 88 87 92 96 97 82 72 71 64
95 95 96 95 94 95 94 88 90 89 88 92 88 83 86 75 88 78 76 78 80 78
Wind_Speed
5 4 3 2 1 1 1 1 3 4 4 4 5 5 5 3 4 5 4 5 4 3
4 4 4 3 1 0 1 2 3 4 4 4 4 4 4 3 5 5 5 5 5 5
4 4 3 3 2 2 2 2 4 5 4 5 5 5 5 4 5 5 4 4 5 5
4 3 4 3 2 2 1 1 3 3 4 4 5 5 5 5 6 5 5 6 6 8
4 4 4 3 2 3 4 4 3 4 5 6 5 5 6 6 6 6 7 7 7 8
4 3 3 2 2 2 3 4 4 5 5 5 5 5 6 6 6 7 8 8 7 5
3 3 3 3 2 2 2 3 4 5 5 5 5 5 5 7 7 7 6 5 4 3
3 4 2 2 3 3 2 0 1 5 5 5 5 4 8 7 5 5 5 3 3 4
4 1 2 2 3 3 3 3 4 4 5 5 5 10 12 7 3 4 4 4 3 3
2 1 2 2 1 2 4 4 4 4 4 5 5 12 10 8 3 3 3 4 4 3
3 1 3 1 2 3 2 3 4 3 3 5 5 12 9 6 3 3 4 4 4 4
4 2 1 1 2 2 3 3 3 3 3 4 5 12 8 6 4 5 5 4 3 4
4 3 2 1 1 1 2 3 3 4 3 4 5 10 8 4 2 3 3 4 4 8
4 3 1 2 2 2 2 3 4 4 4 2 4 6 9 1 2 1 2 3 3 3
Wind_Direction
131 131 123 136 139 4 360 66 18 14 17 2 350 342 343 334 322 309 303 287 278 268
133 135 139 122 96 74 77 63 27 16 359 341 333 322 316 310 306 303 281 276 273 263
133 129 135 111 63 66 103 55 29 2 344 330 324 324 315 301 292 285 289 281 274 269
122 119 111 93 55 344 297 26 20 327 314 326 334 324 316 310 295 296 299 294 284 279
110 99 96 70 35 31 21 354 6 331 326 343 327 314 307 300 299 302 297 289 283 280
103 92 93 55 27 35 23 360 358 360 329 312 312 304 293 294 303 298 286 282 276 304
92 75 65 16 332 347 325 40 350 329 307 304 307 303 309 318 309 297 297 303 325 348
88 64 35 360 352 347 306 57 330 315 319 324 321 325 324 317 313 318 323 358 12 26
85 125 31 6 2 346 328 343 1 336 323 326 334 320 334 333 336 343 358 360 23 41
140 82 344 278 234 8 0 352 325 321 331 332 323 332 343 360 7 9 21 17 9 41
125 178 266 338 355 12 0 311 295 307 345 341 328 342 356 12 21 21 25 36 41 50
180 246 252 295 358 349 309 298 287 303 328 339 344 346 14 28 21 26 13 10 52 57
181 203 279 297 333 282 276 284 314 307 270 351 359 348 16 53 31 23 8 24 24 82
174 184 226 294 241 261 297 330 330 326 324 322 345 357 4 27 229 180 92 53 25 25